EW0408 Weather Reports


Display with metric or nautical units.
time (UTC)temp
F
wind
direction
speed
MPH
gust
MPH
rain 1hr
in
rain 24hr
in
rain mn
in
humidity
%
barometer
mb
20260508091004 70 0 0.0 0.0 0.00 0.00 0.00 90 1014.0
20260508090025 70 0 0.0 0.0 0.00 0.00 0.00 90 1013.8
20260508085004 70 0 0.0 0.0 0.00 0.00 0.00 90 1013.9
20260508084004 70 0 0.0 0.0 0.00 0.00 0.00 90 1013.7
20260508083004 70 277 0.0 1.0 0.00 0.00 0.00 90 1013.7
20260508082004 70 0 0.0 0.0 0.00 0.00 0.00 89 1013.8
20260508081025 70 0 0.0 0.0 0.00 0.00 0.00 89 1013.8
20260508080004 70 0 0.0 0.0 0.00 0.00 0.00 89 1013.8
20260508075004 70 0 0.0 0.0 0.00 0.00 0.00 88 1013.9
20260508074004 70 0 0.0 0.0 0.00 0.00 0.00 88 1013.9
20260508073004 70 0 0.0 0.0 0.00 0.00 0.00 88 1014.0
20260508072004 70 0 0.0 0.0 0.00 0.00 0.00 87 1013.9
20260508071004 70 0 0.0 0.0 0.00 0.00 0.00 87 1014.0
20260508070004 70 0 0.0 0.0 0.00 0.00 0.00 86 1014.1
20260508065004 70 0 0.0 0.0 0.00 0.00 0.00 85 1013.9
20260508064004 70 0 0.0 0.0 0.00 0.00 0.00 85 1014.2
20260508063004 70 0 0.0 0.0 0.00 0.00 0.00 84 1014.4
20260508062025 70 263 0.0 1.0 0.00 0.00 0.00 82 1014.4
20260508061004 70 269 0.0 1.0 0.00 0.00 0.00 80 1014.5
20260508060005 70 266 0.0 1.0 0.00 0.00 0.00 78 1014.4
20260508055025 70 0 0.0 0.0 0.00 0.00 0.00 76 1014.5
20260508054004 70 265 0.0 2.0 0.00 0.00 0.00 74 1014.5
20260508053004 71 259 0.0 3.0 0.00 0.00 0.00 73 1014.6
20260508052004 71 257 1.0 4.0 0.00 0.00 0.00 72 1014.7
20260508051004 72 256 1.0 5.0 0.00 0.00 0.00 71 1014.7
20260508050004 72 261 1.0 4.0 0.00 0.00 0.00 70 1014.7
20260508045004 72 267 2.0 5.0 0.00 0.00 0.00 69 1014.8
20260508044004 73 269 2.0 5.0 0.00 0.00 0.00 69 1014.8
20260508043005 73 266 2.0 6.0 0.00 0.00 0.00 68 1014.9
20260508042004 73 258 2.0 5.0 0.00 0.00 0.00 67 1014.8
20260508041004 73 252 2.0 6.0 0.00 0.00 0.00 66 1014.8
20260508040025 74 253 2.0 5.0 0.00 0.00 0.00 65 1014.9
20260508035025 74 253 2.0 6.0 0.00 0.00 0.00 64 1014.8
20260508034004 75 259 3.0 5.0 0.00 0.00 0.00 63 1014.9
20260508033003 75 258 3.0 8.0 0.00 0.00 0.00 62 1014.9
20260508032024 76 261 3.0 8.0 0.00 0.00 0.00 62 1014.7
20260508031004 76 265 3.0 6.0 0.00 0.00 0.00 61 1014.7
20260508030004 76 264 3.0 8.0 0.00 0.00 0.00 61 1014.7
20260508025004 76 256 3.0 5.0 0.00 0.00 0.00 60 1014.6
20260508024004 77 257 3.0 6.0 0.00 0.00 0.00 59 1014.7
20260508023004 77 262 3.0 9.0 0.00 0.00 0.00 58 1014.5
20260508022004 77 257 3.0 8.0 0.00 0.00 0.00 57 1014.5
20260508021004 78 254 2.0 5.0 0.00 0.00 0.00 56 1014.3
20260508020004 78 259 2.0 7.0 0.00 0.00 0.00 54 1014.3
20260508015004 79 258 3.0 6.0 0.00 0.00 0.00 53 1014.2
20260508014004 79 253 3.0 8.0 0.00 0.00 0.00 51 1014.3
20260508013004 80 261 3.0 7.0 0.00 0.00 0.00 49 1014.2
20260508012005 80 256 3.0 11.0 0.00 0.00 0.00 48 1014.1
20260508011004 80 251 3.0 6.0 0.00 0.00 0.00 46 1014.1
20260508010004 81 254 3.0 7.0 0.00 0.00 0.00 45 1014.1
20260508005004 82 257 3.0 7.0 0.00 0.00 0.00 43 1014.0
20260508004004 82 258 3.0 8.0 0.00 0.00 0.00 40 1014.0
20260508003005 83 254 3.0 8.0 0.00 0.00 0.00 39 1014.0
20260508002004 84 252 3.0 6.0 0.00 0.00 0.00 38 1013.9
20260508001004 84 261 2.0 7.0 0.00 0.00 0.00 37 1013.8
20260508000004 85 260 3.0 7.0 0.00 0.00 0.00 36 1013.8
20260507235004 86 254 3.0 6.0 0.00 0.00 0.00 35 1013.8
20260507234004 87 254 4.0 9.0 0.00 0.00 0.00 36 1013.8
20260507233004 88 255 4.0 11.0 0.00 0.00 0.00 37 1013.8
20260507232004 89 258 4.0 9.0 0.00 0.00 0.00 37 1013.7
20260507231004 90 261 5.0 10.0 0.00 0.00 0.00 37 1013.6
20260507230004 91 258 5.0 11.0 0.00 0.00 0.00 39 1013.5
20260507225004 91 264 5.0 11.0 0.00 0.00 0.00 37 1013.4
20260507224004 91 243 4.0 10.0 0.00 0.00 0.00 38 1013.3
20260507223025 92 238 4.0 10.0 0.00 0.00 0.00 38 1013.2
20260507222005 92 231 4.0 11.0 0.00 0.00 0.00 39 1013.1
20260507221003 93 259 4.0 11.0 0.00 0.00 0.00 38 1013.0
20260507220025 93 252 4.0 8.0 0.00 0.00 0.00 38 1013.0
20260507215004 93 250 4.0 11.0 0.00 0.00 0.00 38 1013.2
20260507214004 93 243 5.0 11.0 0.00 0.00 0.00 37 1013.1
20260507213004 93 248 3.0 9.0 0.00 0.00 0.00 38 1013.2
20260507212004 93 251 4.0 10.0 0.00 0.00 0.00 40 1013.2
20260507211004 93 252 5.0 14.0 0.00 0.00 0.00 40 1013.2
20260507210025 93 253 4.0 13.0 0.00 0.00 0.00 40 1013.4
20260507205024 93 243 4.0 11.0 0.00 0.00 0.00 41 1013.6
20260507204003 92 255 4.0 12.0 0.00 0.00 0.00 42 1013.5
20260507203004 92 245 5.0 14.0 0.00 0.00 0.00 44 1013.5
20260507202004 92 245 4.0 14.0 0.00 0.00 0.00 43 1013.5
20260507201003 93 248 5.0 13.0 0.00 0.00 0.00 44 1013.6
20260507200004 93 256 4.0 10.0 0.00 0.00 0.00 43 1013.6
20260507195004 92 242 5.0 10.0 0.00 0.00 0.00 46 1013.8
20260507194004 92 269 5.0 13.0 0.00 0.00 0.00 47 1014.0
20260507193004 92 287 3.0 12.0 0.00 0.00 0.00 49 1014.1
20260507192004 91 250 4.0 11.0 0.00 0.00 0.00 51 1014.2
20260507191004 91 233 3.0 9.0 0.00 0.00 0.00 53 1014.5
20260507190005 91 253 6.0 16.0 0.00 0.00 0.00 53 1014.8
20260507185003 91 234 4.0 10.0 0.00 0.00 0.00 51 1014.9
20260507184003 91 255 5.0 12.0 0.00 0.00 0.00 52 1015.2
20260507183003 90 240 5.0 11.0 0.00 0.00 0.00 53 1015.3
20260507182004 90 228 5.0 12.0 0.00 0.00 0.00 55 1015.4
20260507181004 90 223 5.0 14.0 0.00 0.00 0.00 56 1015.5
20260507180004 90 244 4.0 10.0 0.00 0.00 0.00 57 1015.5
20260507175003 89 252 6.0 14.0 0.00 0.00 0.00 57 1015.6
20260507174003 89 234 6.0 16.0 0.00 0.00 0.00 58 1015.6
20260507173004 90 240 5.0 12.0 0.00 0.00 0.00 58 1015.8
20260507172004 90 239 5.0 11.0 0.00 0.00 0.00 59 1015.7
20260507171004 89 225 6.0 15.0 0.00 0.00 0.00 57 1015.7
20260507170003 89 244 5.0 12.0 0.00 0.00 0.00 59 1015.9
20260507165004 88 253 5.0 10.0 0.00 0.00 0.00 62 1016.0
20260507164004 88 227 5.0 10.0 0.00 0.00 0.00 61 1016.2
20260507163004 88 242 5.0 11.0 0.00 0.00 0.00 62 1016.1
20260507162003 87 234 4.0 11.0 0.00 0.00 0.00 64 1016.2
20260507161004 86 240 5.0 10.0 0.00 0.00 0.00 64 1016.4
20260507160003 87 229 3.0 8.0 0.00 0.00 0.00 64 1016.5
20260507155004 86 234 4.0 9.0 0.00 0.00 0.00 64 1016.4
20260507154005 86 235 5.0 13.0 0.00 0.00 0.00 64 1016.5
20260507151003 85 238 5.0 12.0 0.00 0.00 0.00 67 1016.6
20260507150004 85 230 4.0 10.0 0.00 0.00 0.00 66 1016.5
20260507145003 84 205 3.0 9.0 0.00 0.00 0.00 67 1016.7
20260507144025 84 216 4.0 14.0 0.00 0.00 0.00 68 1016.8
20260507143004 83 231 4.0 11.0 0.00 0.00 0.00 69 1016.7
20260507142004 83 216 4.0 10.0 0.00 0.00 0.00 71 1016.8
20260507141004 83 207 2.0 7.0 0.00 0.00 0.00 72 1016.9
20260507140003 82 218 3.0 8.0 0.00 0.00 0.00 73 1016.8
20260507135004 82 219 4.0 11.0 0.00 0.00 0.00 75 1016.8
20260507134004 81 218 2.0 12.0 0.00 0.00 0.00 74 1016.7
20260507133003 80 221 2.0 9.0 0.00 0.00 0.00 77 1016.6
20260507132003 80 205 3.0 8.0 0.00 0.00 0.00 77 1016.7
20260507131003 79 207 2.0 8.0 0.00 0.00 0.00 78 1016.4
20260507130004 78 205 1.0 10.0 0.00 0.00 0.00 80 1016.5
20260507125004 78 212 3.0 10.0 0.00 0.00 0.00 81 1016.5
20260507124004 77 209 3.0 9.0 0.00 0.00 0.00 82 1016.4
20260507123004 76 203 2.0 8.0 0.00 0.00 0.00 83 1016.3
20260507122004 76 193 1.0 5.0 0.00 0.00 0.00 84 1016.4
20260507121003 75 0 0.0 0.0 0.00 0.00 0.00 85 1016.3
20260507120004 73 194 0.0 2.0 0.00 0.00 0.00 86 1016.5
20260507115004 72 199 0.0 2.0 0.00 0.00 0.00 86 1016.4
20260507114003 72 0 0.0 0.0 0.00 0.00 0.00 86 1016.3
20260507113004 71 0 0.0 0.0 0.00 0.00 0.00 86 1016.4
20260507112003 70 0 0.0 0.0 0.00 0.00 0.00 87 1016.4
20260507111025 70 0 0.0 0.0 0.00 0.00 0.00 87 1016.3
20260507110005 70 0 0.0 0.0 0.00 0.00 0.00 87 1016.1
20260507105004 69 0 0.0 0.0 0.00 0.00 0.00 87 1016.2
20260507104004 69 0 0.0 0.0 0.00 0.00 0.00 86 1016.1
20260507103003 69 0 0.0 0.0 0.00 0.00 0.00 85 1016.0
20260507102006 69 0 0.0 0.0 0.00 0.00 0.00 85 1015.8
20260507101025 69 0 0.0 0.0 0.00 0.00 0.00 85 1015.7
20260507100004 69 0 0.0 0.0 0.00 0.00 0.00 85 1015.7
20260507095004 70 0 0.0 0.0 0.00 0.00 0.00 84 1015.4
20260507094025 70 0 0.0 0.0 0.00 0.00 0.00 84 1015.4
20260507093003 70 0 0.0 0.0 0.00 0.00 0.00 84 1015.5
20260507092005 70 0 0.0 0.0 0.00 0.00 0.00 84 1015.4